This is the latest recevied weather packets stored in our database for station/object VR2R-13. If no packets are shown the sender has not sent any weather packets the latest 10 day(s).
| Time | Temp. | Humidity | Pressure | Rain* | Wind** | Luminosity | Snow |
|---|---|---|---|---|---|---|---|
| 1777259410 | 18.33° C | 92% | 915.2 hPa | 0 mm | - | - | - |
| 1777259049 | 18.89° C | 91% | 915.1 hPa | 0 mm | - | - | - |
| 1777258689 | 19.44° C | 90% | 915.3 hPa | 0 mm | - | - | - |
| 1777257368 | 18.89° C | 91% | 915.5 hPa | 0 mm | - | - | - |
| 1777257251 | 18.89° C | 90% | 915.5 hPa | 0 mm | - | - | - |
| 1777257068 | 18.89° C | 90% | 915.5 hPa | 0 mm | - | - | - |
| 1777256889 | 18.89° C | 90% | 915.7 hPa | 0 mm | - | - | - |
| 1777256767 | 18.89° C | 90% | 915.7 hPa | 0 mm | - | - | - |
| 1777256529 | 18.89° C | 90% | 915.7 hPa | 0 mm | - | - | - |
| 1777256468 | 18.89° C | 89% | 915.6 hPa | 0 mm | - | - | - |
| 1777256169 | 18.89° C | 91% | 915.6 hPa | 0 mm | - | - | - |
| 1777256167 | 18.89° C | 91% | 915.5 hPa | 0 mm | - | - | - |
| 1777255867 | 18.89° C | 90% | 915.5 hPa | 0 mm | - | - | - |
| 1777255809 | 18.89° C | 91% | 915.6 hPa | 0 mm | - | - | - |
| 1777255568 | 18.33° C | 90% | 915.5 hPa | 0 mm | - | - | - |
| 1777255449 | 18.89° C | 91% | 915.6 hPa | 0 mm | - | - | - |
| 1777255267 | 18.33° C | 92% | 915.6 hPa | 0 mm | - | - | - |
| 1777255089 | 18.33° C | 92% | 915.6 hPa | 0 mm | - | - | - |
| 1777254369 | 17.78° C | 92% | 915.7 hPa | 0 mm | - | - | - |
| 1777254367 | 17.78° C | 92% | 915.7 hPa | 0 mm | - | - | - |
| 1777254008 | 17.78° C | 92% | 915.5 hPa | 0 mm | - | - | - |
| 1777253767 | 17.78° C | 92% | 915.6 hPa | 0 mm | - | - | - |
| 1777253648 | 17.78° C | 91% | 915.6 hPa | 0 mm | - | - | - |
| 1777253467 | 18.33° C | 90% | 915.5 hPa | 0 mm | - | - | - |
| 1777253288 | 17.78° C | 91% | 915.6 hPa | 0 mm | - | - | - |
* Rain latest hour (hover to see other rain measurements)
** Current wind speed in m/s (hover to see current wind gust speed)